Time,TemperatureF,DewpointF,PressureIn,WindDirection,WindDirectionDegrees,WindSpeedMPH,WindSpeedGustMPH,Humidity,HourlyPrecipIn,Conditions,Clouds,dailyrainin,SoftwareType,DateUTC
2013-03-04 00:01:00,29.0,14.0,29.74,West,273,8.0,15.0,54,0.00,,,0.00,,2013-03-04 05:01:00,
2013-03-04 00:11:00,29.0,14.0,29.74,West,273,8.0,15.0,54,0.00,,,0.00,,2013-03-04 05:11:00,
2013-03-04 00:22:00,29.0,14.0,29.74,WNW,303,13.0,16.0,53,0.00,,,0.00,,2013-03-04 05:22:00,
2013-03-04 00:32:00,29.0,14.0,29.74,WNW,303,13.0,16.0,53,0.00,,,0.00,,2013-03-04 05:32:00,
2013-03-04 00:42:00,29.0,14.0,29.74,NNW,331,10.0,14.0,52,0.00,,,0.00,,2013-03-04 05:42:00,
2013-03-04 00:52:00,29.0,14.0,29.74,NNW,331,10.0,14.0,52,0.00,,,0.00,,2013-03-04 05:52:00,
2013-03-04 01:02:00,29.0,14.0,29.74,NNW,331,10.0,14.0,52,0.00,,,0.00,,2013-03-04 06:02:00,
2013-03-04 01:11:00,29.0,14.0,29.74,NNW,331,10.0,14.0,52,0.00,,,0.00,,2013-03-04 06:11:00,
2013-03-04 01:22:00,28.0,13.0,29.74,WNW,302,12.0,17.0,52,0.00,,,0.00,,2013-03-04 06:22:00,
2013-03-04 01:32:00,28.0,13.0,29.75,NNW,331,8.0,11.0,52,0.00,,,0.00,,2013-03-04 06:32:00,
2013-03-04 01:42:00,28.0,13.0,29.75,NNW,331,8.0,11.0,52,0.00,,,0.00,,2013-03-04 06:42:00,
2013-03-04 01:52:00,28.0,13.0,29.75,WNW,300,8.0,13.0,52,0.00,,,0.00,,2013-03-04 06:52:00,
2013-03-04 02:01:00,28.0,13.0,29.75,NW,319,6.0,15.0,52,0.00,,,0.00,,2013-03-04 07:01:00,
2013-03-04 02:11:00,28.0,13.0,29.75,NW,319,6.0,15.0,52,0.00,,,0.00,,2013-03-04 07:11:00,
2013-03-04 02:22:00,28.0,13.0,29.74,NW,321,9.0,12.0,53,0.00,,,0.00,,2013-03-04 07:22:00,
2013-03-04 02:32:00,28.0,13.0,29.74,NW,325,16.0,18.0,53,0.00,,,0.00,,2013-03-04 07:32:00,
2013-03-04 02:42:00,28.0,13.0,29.74,NW,325,16.0,18.0,53,0.00,,,0.00,,2013-03-04 07:42:00,
2013-03-04 02:52:00,28.0,14.0,29.74,NW,325,13.0,18.0,54,0.00,,,0.00,,2013-03-04 07:52:00,
2013-03-04 03:02:00,28.0,14.0,29.74,NW,326,10.0,18.0,55,0.00,,,0.00,,2013-03-04 08:02:00,
2013-03-04 03:12:00,28.0,15.0,29.74,NW,311,5.0,12.0,57,0.00,,,0.00,,2013-03-04 08:12:00,
2013-03-04 03:22:00,28.0,15.0,29.74,NW,311,5.0,12.0,57,0.00,,,0.00,,2013-03-04 08:22:00,
2013-03-04 03:32:00,28.0,15.0,29.74,WNW,302,10.0,13.0,57,0.00,,,0.00,,2013-03-04 08:32:00,
2013-03-04 03:42:00,28.0,15.0,29.74,WNW,302,10.0,13.0,57,0.00,,,0.00,,2013-03-04 08:42:00,
2013-03-04 03:52:00,28.0,15.0,29.74,NNW,331,6.0,11.0,58,0.00,,,0.00,,2013-03-04 08:52:00,
2013-03-04 04:02:00,28.0,16.0,29.75,NW,307,8.0,13.0,59,0.00,,,0.00,,2013-03-04 09:02:00,
2013-03-04 04:11:00,28.0,16.0,29.75,NW,307,8.0,13.0,59,0.00,,,0.00,,2013-03-04 09:11:00,
2013-03-04 04:22:00,28.0,16.0,29.75,WNW,302,4.0,9.0,60,0.00,,,0.00,,2013-03-04 09:22:00,
2013-03-04 04:32:00,28.0,16.0,29.75,NNW,347,5.0,7.0,60,0.00,,,0.00,,2013-03-04 09:32:00,
2013-03-04 04:42:00,28.0,16.0,29.75,NNW,347,5.0,7.0,60,0.00,,,0.00,,2013-03-04 09:42:00,
2013-03-04 04:52:00,28.0,16.0,29.75,WNW,301,3.0,10.0,61,0.00,,,0.00,,2013-03-04 09:52:00,
2013-03-04 05:01:00,28.0,16.0,29.75,NW,314,5.0,12.0,61,0.00,,,0.00,,2013-03-04 10:01:00,
2013-03-04 05:11:00,28.0,16.0,29.75,NW,314,5.0,12.0,61,0.00,,,0.00,,2013-03-04 10:11:00,
2013-03-04 05:22:00,28.0,16.0,29.75,NW,318,4.0,8.0,61,0.00,,,0.00,,2013-03-04 10:22:00,
2013-03-04 05:32:00,28.0,16.0,29.76,WNW,284,6.0,11.0,61,0.00,,,0.00,,2013-03-04 10:32:00,
2013-03-04 05:42:00,28.0,16.0,29.76,WNW,298,4.0,10.0,61,0.00,,,0.00,,2013-03-04 10:42:00,
2013-03-04 05:52:00,28.0,16.0,29.76,WNW,298,4.0,10.0,61,0.00,,,0.00,,2013-03-04 10:52:00,
2013-03-04 06:02:00,28.0,16.0,29.77,NNW,347,10.0,11.0,61,0.00,,,0.00,,2013-03-04 11:02:00,
2013-03-04 06:10:00,28.0,17.0,29.77,WNW,283,3.0,8.0,62,0.00,,,0.00,,2013-03-04 11:10:00,
2013-03-04 06:11:00,28.0,16.0,29.77,NNW,347,10.0,11.0,61,0.00,,,0.00,,2013-03-04 11:11:00,
2013-03-04 06:22:00,28.0,16.0,29.77,NNW,347,10.0,11.0,61,0.00,,,0.00,,2013-03-04 11:22:00,
2013-03-04 06:32:00,28.0,17.0,29.77,WNW,283,3.0,8.0,62,0.00,,,0.00,,2013-03-04 11:32:00,
2013-03-04 06:42:00,28.0,17.0,29.77,WNW,283,3.0,8.0,62,0.00,,,0.00,,2013-03-04 11:42:00,
2013-03-04 06:52:00,28.0,17.0,29.77,WNW,283,3.0,8.0,62,0.00,,,0.00,,2013-03-04 11:52:00,
2013-03-04 07:02:00,28.0,17.0,29.77,WNW,283,3.0,8.0,62,0.00,,,0.00,,2013-03-04 12:02:00,
2013-03-04 07:22:00,29.0,17.0,29.79,NNW,340,6.0,14.0,61,0.00,,,0.00,,2013-03-04 12:22:00,
2013-03-04 07:32:00,29.0,17.0,29.79,WNW,285,2.0,10.0,61,0.00,,,0.00,,2013-03-04 12:32:00,
2013-03-04 07:43:00,29.0,17.0,29.79,WNW,285,2.0,10.0,61,0.00,,,0.00,,2013-03-04 12:43:00,
2013-03-04 07:53:00,29.0,17.0,29.79,WNW,285,2.0,10.0,61,0.00,,,0.00,,2013-03-04 12:53:00,
2013-03-04 08:02:00,30.0,18.0,29.80,NW,323,6.0,12.0,60,0.00,,,0.00,,2013-03-04 13:02:00,
2013-03-04 08:11:00,30.0,18.0,29.80,NW,323,6.0,12.0,60,0.00,,,0.00,,2013-03-04 13:11:00,
2013-03-04 08:22:00,30.0,17.0,29.79,WNW,292,6.0,18.0,58,0.00,,,0.00,,2013-03-04 13:22:00,
2013-03-04 08:32:00,31.0,18.0,29.79,North,354,9.0,13.0,58,0.00,,,0.00,,2013-03-04 13:32:00,
2013-03-04 08:42:00,31.0,18.0,29.79,North,354,9.0,13.0,58,0.00,,,0.00,,2013-03-04 13:42:00,
2013-03-04 08:52:00,31.0,18.0,29.79,NNW,327,10.0,13.0,57,0.00,,,0.00,,2013-03-04 13:52:00,
2013-03-04 09:01:00,32.0,18.0,29.79,North,352,5.0,19.0,55,0.00,,,0.00,,2013-03-04 14:01:00,
2013-03-04 09:11:00,32.0,18.0,29.79,North,352,5.0,19.0,55,0.00,,,0.00,,2013-03-04 14:11:00,
2013-03-04 09:22:00,32.0,17.0,29.78,NNW,328,10.0,14.0,54,0.00,,,0.00,,2013-03-04 14:22:00,
2013-03-04 09:32:00,32.0,17.0,29.79,NW,313,8.0,19.0,53,0.00,,,0.00,,2013-03-04 14:32:00,
2013-03-04 09:42:00,32.0,17.0,29.79,NW,313,8.0,19.0,53,0.00,,,0.00,,2013-03-04 14:42:00,
2013-03-04 09:52:00,33.0,17.0,29.79,WSW,249,5.0,16.0,52,0.00,,,0.00,,2013-03-04 14:52:00,
2013-03-04 10:02:00,34.0,17.0,29.79,WNW,297,8.0,17.0,50,0.00,,,0.00,,2013-03-04 15:02:00,
2013-03-04 10:11:00,34.0,17.0,29.79,WNW,297,8.0,17.0,50,0.00,,,0.00,,2013-03-04 15:11:00,
2013-03-04 10:22:00,36.0,18.0,29.79,West,262,9.0,10.0,47,0.00,,,0.00,,2013-03-04 15:22:00,
2013-03-04 10:32:00,36.0,17.0,29.79,WNW,293,10.0,14.0,46,0.00,,,0.00,,2013-03-04 15:32:00,
2013-03-04 10:42:00,36.0,17.0,29.79,WNW,293,10.0,14.0,46,0.00,,,0.00,,2013-03-04 15:42:00,
2013-03-04 10:52:00,37.0,18.0,29.78,NW,321,8.0,17.0,45,0.00,,,0.00,,2013-03-04 15:52:00,
2013-03-04 11:02:00,38.0,19.0,29.78,North,0,5.0,11.0,45,0.00,,,0.00,,2013-03-04 16:02:00,
2013-03-04 11:11:00,38.0,19.0,29.78,North,0,5.0,11.0,45,0.00,,,0.00,,2013-03-04 16:11:00,
2013-03-04 11:21:00,39.0,18.0,29.78,NNW,344,5.0,17.0,43,0.00,,,0.00,,2013-03-04 16:21:00,
2013-03-04 11:32:00,39.0,18.0,29.78,WNW,300,10.0,12.0,42,0.00,,,0.00,,2013-03-04 16:32:00,
2013-03-04 11:42:00,39.0,18.0,29.78,WNW,300,10.0,12.0,42,0.00,,,0.00,,2013-03-04 16:42:00,
2013-03-04 11:52:00,40.0,18.0,29.78,NNW,344,4.0,14.0,41,0.00,,,0.00,,2013-03-04 16:52:00,
2013-03-04 12:02:00,40.0,18.0,29.78,NNW,330,10.0,14.0,40,0.00,,,0.00,,2013-03-04 17:02:00,
2013-03-04 12:11:00,40.0,18.0,29.78,NNW,330,10.0,14.0,40,0.00,,,0.00,,2013-03-04 17:11:00,
2013-03-04 12:22:00,41.0,18.0,29.77,WNW,294,8.0,17.0,39,0.00,,,0.00,,2013-03-04 17:22:00,
2013-03-04 12:32:00,41.0,17.0,29.77,NW,310,4.0,11.0,38,0.00,,,0.00,,2013-03-04 17:32:00,
2013-03-04 12:42:00,41.0,17.0,29.77,NW,310,4.0,11.0,38,0.00,,,0.00,,2013-03-04 17:42:00,
2013-03-04 12:52:00,42.0,18.0,29.77,WNW,295,7.0,16.0,37,0.00,,,0.00,,2013-03-04 17:52:00,
2013-03-04 13:01:00,42.0,18.0,29.77,WNW,295,7.0,16.0,37,0.00,,,0.00,,2013-03-04 18:01:00,
2013-03-04 13:11:00,42.0,18.0,29.77,WNW,295,7.0,16.0,37,0.00,,,0.00,,2013-03-04 18:11:00,
2013-03-04 13:22:00,42.0,18.0,29.76,NW,311,8.0,16.0,37,0.00,,,0.00,,2013-03-04 18:22:00,
2013-03-04 13:32:00,41.0,17.0,29.75,NW,307,10.0,21.0,37,0.00,,,0.00,,2013-03-04 18:32:00,
2013-03-04 13:42:00,41.0,17.0,29.75,NW,307,10.0,21.0,37,0.00,,,0.00,,2013-03-04 18:42:00,
2013-03-04 13:52:00,42.0,18.0,29.75,NNW,348,10.0,18.0,37,0.00,,,0.00,,2013-03-04 18:52:00,
2013-03-04 14:02:00,42.0,18.0,29.75,NNW,338,13.0,19.0,37,0.00,,,0.00,,2013-03-04 19:02:00,
2013-03-04 14:12:00,42.0,18.0,29.75,NNW,338,13.0,19.0,37,0.00,,,0.00,,2013-03-04 19:12:00,
2013-03-04 14:22:00,41.0,17.0,29.75,NNW,330,10.0,20.0,38,0.00,,,0.00,,2013-03-04 19:22:00,
2013-03-04 14:32:00,41.0,17.0,29.75,NW,304,14.0,15.0,38,0.00,,,0.00,,2013-03-04 19:32:00,
2013-03-04 14:42:00,41.0,17.0,29.75,NW,304,14.0,15.0,38,0.00,,,0.00,,2013-03-04 19:42:00,
2013-03-04 14:52:00,41.0,17.0,29.75,NW,305,11.0,18.0,38,0.00,,,0.00,,2013-03-04 19:52:00,
2013-03-04 15:02:00,41.0,17.0,29.75,NW,325,11.0,15.0,38,0.00,,,0.00,,2013-03-04 20:02:00,
2013-03-04 15:11:00,41.0,17.0,29.77,North,352,9.0,19.0,38,0.00,,,0.00,,2013-03-04 20:11:00,
2013-03-04 15:22:00,41.0,17.0,29.77,North,352,9.0,19.0,38,0.00,,,0.00,,2013-03-04 20:22:00,
2013-03-04 15:32:00,40.0,16.0,29.76,West,278,10.0,17.0,38,0.00,,,0.00,,2013-03-04 20:32:00,
2013-03-04 15:42:00,40.0,16.0,29.76,West,278,10.0,17.0,38,0.00,,,0.00,,2013-03-04 20:42:00,
2013-03-04 15:53:00,40.0,17.0,29.77,NW,312,10.0,16.0,39,0.00,,,0.00,,2013-03-04 20:53:00,
2013-03-04 16:02:00,40.0,17.0,29.76,NNW,342,14.0,19.0,39,0.00,,,0.00,,2013-03-04 21:02:00,
2013-03-04 16:12:00,40.0,17.0,29.76,NNW,342,14.0,19.0,39,0.00,,,0.00,,2013-03-04 21:12:00,
2013-03-04 16:22:00,40.0,18.0,29.76,NNW,343,11.0,17.0,40,0.00,,,0.00,,2013-03-04 21:22:00,
2013-03-04 16:32:00,40.0,18.0,29.77,North,355,11.0,19.0,40,0.00,,,0.00,,2013-03-04 21:32:00,
2013-03-04 16:42:00,40.0,18.0,29.77,North,355,11.0,19.0,40,0.00,,,0.00,,2013-03-04 21:42:00,
2013-03-04 16:53:00,40.0,18.0,29.76,NNW,330,5.0,17.0,40,0.00,,,0.00,,2013-03-04 21:53:00,
2013-03-04 17:02:00,40.0,18.0,29.77,North,350,12.0,20.0,40,0.00,,,0.00,,2013-03-04 22:02:00,
2013-03-04 17:12:00,40.0,18.0,29.77,North,350,12.0,20.0,40,0.00,,,0.00,,2013-03-04 22:12:00,
2013-03-04 17:22:00,39.0,17.0,29.77,NNW,330,10.0,17.0,40,0.00,,,0.00,,2013-03-04 22:22:00,
2013-03-04 17:32:00,39.0,17.0,29.77,NNW,330,10.0,17.0,40,0.00,,,0.00,,2013-03-04 22:32:00,
2013-03-04 17:42:00,39.0,17.0,29.77,NNW,330,10.0,17.0,40,0.00,,,0.00,,2013-03-04 22:42:00,
2013-03-04 17:52:00,39.0,17.0,29.78,NW,312,11.0,19.0,40,0.00,,,0.00,,2013-03-04 22:52:00,
2013-03-04 18:02:00,39.0,17.0,29.78,NW,324,13.0,17.0,41,0.00,,,0.00,,2013-03-04 23:02:00,
2013-03-04 18:11:00,39.0,17.0,29.78,NW,324,13.0,17.0,41,0.00,,,0.00,,2013-03-04 23:11:00,
2013-03-04 18:22:00,38.0,17.0,29.79,NW,314,8.0,12.0,42,0.00,,,0.00,,2013-03-04 23:22:00,
2013-03-04 18:32:00,38.0,17.0,29.79,NW,314,8.0,12.0,42,0.00,,,0.00,,2013-03-04 23:32:00,
2013-03-04 18:42:00,38.0,17.0,29.79,NW,314,8.0,12.0,42,0.00,,,0.00,,2013-03-04 23:42:00,
2013-03-04 18:52:00,38.0,17.0,29.80,NW,321,11.0,16.0,42,0.00,,,0.00,,2013-03-04 23:52:00,
2013-03-04 19:02:00,37.0,17.0,29.81,NNW,332,10.0,12.0,43,0.00,,,0.00,,2013-03-05 00:02:00,
2013-03-04 19:12:00,37.0,17.0,29.81,NNW,332,10.0,12.0,43,0.00,,,0.00,,2013-03-05 00:12:00,
2013-03-04 19:22:00,37.0,17.0,29.81,NW,326,12.0,17.0,43,0.00,,,0.00,,2013-03-05 00:22:00,
2013-03-04 19:32:00,37.0,17.0,29.81,NW,317,5.0,14.0,44,0.00,,,0.00,,2013-03-05 00:32:00,
2013-03-04 19:42:00,37.0,17.0,29.81,NW,317,5.0,14.0,44,0.00,,,0.00,,2013-03-05 00:42:00,
2013-03-04 19:52:00,36.0,17.0,29.83,NW,309,2.0,10.0,45,0.00,,,0.00,,2013-03-05 00:52:00,
2013-03-04 20:01:00,36.0,17.0,29.83,WNW,300,3.0,10.0,45,0.00,,,0.00,,2013-03-05 01:01:00,
2013-03-04 20:12:00,36.0,17.0,29.83,WNW,300,3.0,10.0,45,0.00,,,0.00,,2013-03-05 01:12:00,
2013-03-04 20:22:00,36.0,18.0,29.83,WNW,293,1.0,9.0,47,0.00,,,0.00,,2013-03-05 01:22:00,
2013-03-04 20:32:00,36.0,18.0,29.84,WNW,293,2.0,7.0,47,0.00,,,0.00,,2013-03-05 01:32:00,
2013-03-04 20:42:00,36.0,18.0,29.84,WNW,293,2.0,7.0,47,0.00,,,0.00,,2013-03-05 01:42:00,
2013-03-04 20:52:00,36.0,18.0,29.84,NNW,345,10.0,11.0,48,0.00,,,0.00,,2013-03-05 01:52:00,
2013-03-04 21:01:00,36.0,18.0,29.84,NNW,345,10.0,11.0,48,0.00,,,0.00,,2013-03-05 02:01:00,
2013-03-04 21:11:00,36.0,18.0,29.84,NNW,345,10.0,11.0,48,0.00,,,0.00,,2013-03-05 02:11:00,
2013-03-04 21:22:00,35.0,18.0,29.85,NNW,347,2.0,10.0,49,0.00,,,0.00,,2013-03-05 02:22:00,
2013-03-04 21:32:00,35.0,18.0,29.86,WNW,300,7.0,10.0,49,0.00,,,0.00,,2013-03-05 02:32:00,
2013-03-04 21:42:00,35.0,18.0,29.86,WNW,300,7.0,10.0,49,0.00,,,0.00,,2013-03-05 02:42:00,
2013-03-04 21:53:00,35.0,18.0,29.86,NW,326,3.0,10.0,50,0.00,,,0.00,,2013-03-05 02:53:00,
2013-03-04 22:02:00,35.0,18.0,29.86,NW,326,3.0,10.0,50,0.00,,,0.00,,2013-03-05 03:02:00,
2013-03-04 22:12:00,35.0,18.0,29.86,NW,326,3.0,10.0,50,0.00,,,0.00,,2013-03-05 03:12:00,
2013-03-04 22:22:00,35.0,18.0,29.87,North,352,11.0,14.0,50,0.00,,,0.00,,2013-03-05 03:22:00,
2013-03-04 22:32:00,34.0,18.0,29.87,NW,306,7.0,19.0,51,0.00,,,0.00,,2013-03-05 03:32:00,
2013-03-04 22:42:00,34.0,18.0,29.87,NW,306,7.0,19.0,51,0.00,,,0.00,,2013-03-05 03:42:00,
2013-03-04 22:52:00,34.0,18.0,29.88,NW,314,7.0,14.0,52,0.00,,,0.00,,2013-03-05 03:52:00,
2013-03-04 23:02:00,34.0,18.0,29.88,NNW,327,8.0,14.0,52,0.00,,,0.00,,2013-03-05 04:02:00,
2013-03-04 23:12:00,34.0,18.0,29.88,NNW,327,8.0,14.0,52,0.00,,,0.00,,2013-03-05 04:12:00,
2013-03-04 23:22:00,34.0,18.0,29.88,NNW,340,5.0,10.0,52,0.00,,,0.00,,2013-03-05 04:22:00,
2013-03-04 23:32:00,34.0,18.0,29.88,NNW,340,5.0,10.0,52,0.00,,,0.00,,2013-03-05 04:32:00,
2013-03-04 23:42:00,34.0,18.0,29.88,NNW,340,5.0,10.0,52,0.00,,,0.00,,2013-03-05 04:42:00,
2013-03-04 23:52:00,33.0,18.0,29.89,West,274,4.0,15.0,53,0.00,,,0.00,,2013-03-05 04:52:00,